Theta_e
307 307 308 308 308 306 302 297 288 300 304 290 288 284 286 290 289 292 289 289 287 285 286 284 284 284 286 292 291 288 295 293 289 292 298 300 298 296 296 290 289 292 292 293
306 306 307 307 308 307 300 291 289 300 301 283 283 286 286 288 288 288 288 287 288 289 286 282 286 287 291 292 291 290 294 291 287 289 294 297 295 297 298 298 298 291 287 293
306 305 306 307 307 307 300 292 285 292 296 292 285 283 284 284 291 289 290 288 290 288 286 289 285 287 290 292 292 297 295 290 290 288 291 295 292 294 297 297 292 292 293 296
305 305 305 306 306 307 299 293 288 290 284 286 286 285 284 284 284 289 290 287 287 285 283 285 286 288 290 292 293 293 292 286 289 292 293 296 294 294 294 294 295 291 296 296
305 305 306 306 306 305 298 291 289 292 289 289 286 286 284 284 286 286 285 286 287 287 283 284 283 287 288 287 291 291 293 287 289 289 293 295 293 295 295 295 295 295 297 297
305 305 306 307 307 305 297 298 298 292 288 286 285 285 285 285 288 289 290 289 287 286 288 291 292 292 292 292 290 290 290 289 288 287 291 293 290 295 296 296 297 297 294 300
304 305 306 307 308 306 301 300 296 289 284 286 286 287 289 288 288 286 289 291 288 291 296 295 294 294 292 292 293 294 289 289 290 288 292 285 295 300 300 297 297 298 300 302
304 305 307 307 308 307 303 303 296 291 285 287 287 288 288 289 291 289 289 291 293 296 293 289 286 287 288 290 292 293 294 289 288 287 290 295 294 295 294 297 294 298 298 300
305 305 306 308 308 308 304 303 302 296 288 288 290 288 289 287 287 288 290 295 296 296 291 288 281 279 283 283 288 292 292 292 288 289 287 286 292 297 300 302 293 299 300 300
305 305 306 307 308 308 306 305 304 297 290 293 292 287 288 291 290 288 291 292 292 294 288 283 283 283 287 281 281 284 287 288 285 287 287 289 296 299 302 294 292 300 301 301
305 305 306 307 308 309 306 303 302 299 293 293 295 295 292 292 292 288 292 291 292 291 286 285 285 284 286 285 287 287 287 287 286 289 287 285 298 297 292 296 301 301 302 303
304 305 306 307 308 309 307 301 302 303 295 294 300 299 300 298 297 293 293 291 291 294 288 289 288 286 286 285 283 290 286 289 287 288 288 296 300 298 301 301 300 300 301 303
305 305 306 307 308 308 308 303 303 301 294 296 295 294 299 301 301 302 291 293 295 296 297 292 290 285 289 284 286 288 291 295 291 291 293 295 298 301 301 301 301 303 303 303
304 305 306 306 307 308 306 301 304 300 295 290 293 299 299 302 303 300 299 297 298 297 297 293 290 287 292 289 289 289 293 294 292 291 294 297 298 299 299 300 302 302 303 303
304 305 306 305 307 307 305 303 304 304 296 291 293 300 301 303 303 300 300 297 296 295 291 291 290 294 291 293 292 289 294 292 290 290 295 295 295 299 301 299 299 301 302 302
304 304 305 305 306 307 303 297 302 303 301 294 289 299 298 301 302 301 300 298 297 296 290 293 296 296 295 289 288 293 295 295 297 295 299 299 300 301 302 299 300 302 303 303
304 304 304 306 307 304 298 297 302 304 303 294 290 291 298 301 302 301 299 298 300 298 296 294 294 294 295 292 287 293 295 296 297 298 300 298 299 298 303 301 303 304 304 303
303 303 305 307 306 304 302 306 305 306 300 297 289 290 294 300 295 294 300 296 296 296 296 295 293 295 294 289 293 295 295 296 296 297 298 299 301 303 303 304 303 302 302 302
303 304 306 305 301 299 302 306 308 306 299 293 291 288 288 299 299 297 297 297 293 297 292 292 293 291 287 290 292 293 295 295 295 297 298 299 299 299 300 301 302 302 303 303
301 304 300 297 301 305 307 302 298 297 299 297 292 297 291 296 297 293 293 294 290 288 290 294 287 287 292 294 296 297 298 299 299 297 296 298 298 298 299 299 300 301 302 305
295 293 295 300 303 301 297 294 292 293 292 297 297 297 294 299 292 290 293 289 290 285 289 289 288 287 293 299 300 300 301 301 300 300 300 300 300 300 300 300 301 301 301 303
295 295 297 298 297 294 291 289 291 291 290 295 295 295 296 297 298 292 293 288 289 284 292 289 286 291 298 298 298 300 302 302 303 303 302 302 302 302 302 302 302 302 303 303
301 296 294 292 292 287 286 284 288 289 294 296 296 293 296 295 296 291 289 286 285 290 288 288 291 296 297 298 299 300 302 303 303 303 304 303 303 304 303 303 304 305 304 304
293 291 286 287 287 289 291 292 293 296 295 295 295 294 294 294 291 292 285 288 287 283 283 286 294 297 297 299 300 300 301 302 303 303 303 303 302 302 303 303 305 305 304 305
292 292 287 288 292 293 294 295 295 296 297 295 293 293 293 291 288 289 286 283 282 284 286 292 298 299 299 299 300 300 302 302 302 303 303 303 303 302 302 303 303 305 305 305
293 292 291 292 291 292 293 294 294 298 295 294 294 291 288 287 288 284 283 283 282 289 290 297 298 298 299 300 300 301 302 302 302 303 303 303 301 302 302 303 303 302 303 303
294 293 296 293 292 293 293 295 296 297 295 293 292 289 287 289 286 284 285 285 292 295 298 299 298 298 299 300 300 301 302 302 303 303 303 302 303 303 302 300 303 302 302 302
Wind_Speed
21 21 20 21 21 19 7 3 2 3 5 1 1 4 9 8 9 9 7 8 9 10 12 7 3 4 2 7 11 9 6 7 9 27 15 20 21 21 20 10 10 10 3 6
20 20 20 21 21 17 5 6 4 2 3 4 6 8 6 6 7 8 6 6 5 12 8 5 3 4 4 3 5 3 8 7 12 9 6 17 25 20 17 4 5 16 10 5
20 21 20 19 20 17 2 3 5 3 3 1 5 7 5 8 8 9 6 11 8 12 7 4 5 6 2 4 4 17 6 5 9 11 12 7 26 23 19 14 9 8 17 12
21 20 20 19 18 17 1 3 3 2 5 4 9 5 6 9 8 5 7 2 4 8 7 11 4 3 1 2 7 13 4 4 6 14 8 5 21 22 23 21 16 8 6 21
21 20 19 18 16 12 0 3 3 2 7 8 9 4 4 9 8 5 10 6 13 13 11 13 14 5 4 3 4 8 5 1 6 11 11 7 6 8 21 25 22 18 14 18
21 20 18 17 15 6 2 0 2 2 5 4 5 3 6 7 13 9 9 13 17 15 13 8 11 12 12 12 5 6 7 6 4 8 4 6 7 2 7 15 20 20 21 23
20 20 20 17 16 8 1 1 1 3 5 6 8 10 13 12 13 10 14 13 8 4 11 18 16 15 13 14 14 9 7 6 3 3 4 15 7 10 12 16 14 14 11 11
21 19 20 17 14 9 2 1 2 2 6 7 12 8 12 13 13 11 10 6 6 10 9 5 5 4 5 8 9 2 9 2 3 3 3 8 4 12 8 5 9 14 12 13
22 20 19 16 12 8 2 3 3 3 5 2 4 13 12 5 6 7 4 9 5 4 3 4 3 3 1 1 3 4 5 10 4 1 3 4 9 16 7 5 6 16 14 14
22 21 18 17 14 11 2 2 4 3 4 6 2 6 6 3 5 4 7 10 4 3 4 3 3 2 4 2 3 3 1 3 6 1 3 3 14 15 13 6 6 14 14 14
22 21 18 16 15 11 2 2 5 3 4 11 8 5 7 8 5 3 7 7 1 3 6 4 5 3 3 2 3 5 3 2 1 2 2 5 16 3 6 5 7 11 14 14
22 20 19 16 15 11 2 3 3 3 5 9 15 17 20 20 20 7 3 5 5 3 4 3 3 2 3 5 2 4 1 4 2 4 4 5 8 3 5 7 9 11 13 16
22 20 19 16 15 10 4 3 2 2 4 7 3 3 1 4 10 10 4 2 4 1 2 3 2 3 3 3 4 2 1 3 1 2 5 11 5 3 9 10 11 13 14 15
23 20 18 15 13 8 8 4 1 1 3 4 6 3 5 2 5 7 11 9 2 2 1 3 2 2 3 2 2 3 3 3 5 3 8 7 6 9 13 15 13 16 16 16
23 22 19 17 12 7 6 5 4 3 1 4 7 13 4 4 7 9 10 11 6 1 2 2 2 1 2 3 1 3 5 5 4 3 4 6 11 11 17 14 17 18 18 20
25 25 23 16 11 4 1 3 3 6 4 4 4 4 5 6 7 7 4 5 4 2 3 2 3 2 2 2 2 4 5 7 6 6 15 13 17 14 9 16 17 18 17 18
26 25 23 15 8 5 3 2 3 7 4 2 5 5 2 6 4 3 2 1 1 3 2 1 2 2 3 3 3 10 11 10 10 11 10 9 12 14 17 14 17 17 16 16
27 25 14 5 12 2 4 0 9 7 2 1 3 6 5 5 3 2 2 2 0 1 2 1 3 2 2 0 7 12 13 13 10 7 9 11 16 18 15 13 15 16 15 17
27 17 8 3 2 2 1 7 9 2 3 2 2 3 4 4 1 2 2 2 2 3 3 2 3 2 2 5 10 11 13 9 11 11 11 11 12 15 16 15 15 15 15 16
19 1 2 1 2 10 1 2 2 3 3 3 3 2 3 1 3 3 3 2 2 2 2 2 3 3 7 11 9 10 11 12 11 12 12 13 14 15 16 16 15 15 15 16
6 6 3 5 9 2 1 2 3 2 3 3 3 3 4 1 2 1 1 1 2 1 2 2 2 2 6 8 7 6 8 9 11 12 14 14 15 17 16 16 15 15 16 16
5 6 6 4 3 1 3 2 1 3 2 2 2 1 2 1 1 2 2 1 1 2 3 1 2 3 13 9 9 9 8 10 11 11 12 14 14 14 14 15 16 15 17 16
2 3 3 1 1 1 3 3 2 2 2 2 1 4 1 1 0 1 0 2 1 2 0 2 2 3 5 7 6 6 7 8 11 14 14 16 14 13 14 15 16 17 16 15
2 2 5 4 3 5 5 4 3 2 3 3 2 1 2 1 1 1 1 1 1 2 2 2 3 6 8 7 5 5 10 12 12 13 14 14 15 15 15 15 15 15 15 15
4 3 6 7 4 3 3 3 2 3 1 1 1 2 2 0 1 1 1 1 1 1 2 3 4 4 6 7 5 6 7 8 11 13 13 14 15 15 14 15 15 12 12 15
4 6 4 3 2 4 3 4 5 3 3 2 1 1 2 1 0 1 1 2 3 2 4 4 4 7 7 6 6 7 8 9 9 10 12 13 14 14 14 15 14 13 14 14
6 6 4 3 3 5 3 4 3 3 3 2 2 3 2 2 2 2 4 4 4 5 5 3 5 7 7 6 6 6 6 6 5 8 10 12 13 12 13 14 15 16 14 14
Wind_Direction
342 341 343 342 343 341 346 1 331 9 337 353 60 338 325 310 293 323 291 275 277 272 314 292 234 218 237 354 324 306 303 290 245 207 193 200 196 190 183 185 188 230 333 266
340 339 341 343 344 354 324 342 297 334 310 38 354 335 308 275 297 325 321 298 331 322 300 295 253 205 205 255 291 323 345 228 217 147 198 204 199 199 190 147 163 200 199 243
340 339 339 339 341 348 16 348 339 339 23 41 334 324 299 310 300 291 307 284 326 339 320 326 266 238 196 249 304 311 289 258 267 202 199 156 197 194 192 198 200 199 217 226
339 338 340 331 336 344 357 2 13 342 317 331 315 308 306 303 326 321 314 279 351 360 309 323 30 331 233 245 327 331 332 231 276 268 279 302 173 197 198 204 218 212 205 228
336 336 332 328 333 346 354 323 326 305 295 296 300 300 305 298 316 304 313 287 325 325 291 285 295 308 9 313 301 320 9 33 345 262 243 252 144 162 203 207 223 235 250 264
337 332 324 327 330 2 283 307 280 267 285 286 279 291 292 292 305 283 253 306 312 305 301 302 289 277 263 258 281 331 341 349 350 213 346 226 237 291 200 208 222 221 223 241
336 328 323 328 322 339 241 253 250 271 287 301 306 292 301 307 314 293 296 294 280 267 310 301 276 257 247 252 249 253 298 329 275 267 257 202 87 45 14 106 50 10 307 336
333 331 324 326 318 341 230 161 253 285 282 290 296 318 323 304 315 297 297 290 286 309 294 274 285 166 180 224 224 75 217 285 250 239 217 112 54 19 349 2 55 19 353 341
335 336 327 324 319 324 169 215 174 266 291 280 310 306 294 301 312 315 290 311 317 306 299 275 288 336 332 32 165 78 318 238 266 266 244 159 4 332 290 182 114 6 359 348
339 337 328 323 315 314 206 251 179 249 273 282 253 293 317 281 286 280 295 336 326 335 358 327 311 4 323 283 324 349 83 102 195 191 88 100 354 355 138 205 29 343 347 344
338 338 331 320 309 309 204 242 181 243 266 284 256 246 245 278 268 284 326 311 110 331 16 345 351 334 6 283 298 328 325 312 132 173 140 128 357 9 64 0 342 338 341 343
334 335 331 321 308 311 195 248 171 180 252 271 296 279 265 257 256 273 259 294 295 2 341 352 307 316 291 312 91 358 34 356 41 10 67 346 341 11 48 2 340 344 336 336
328 332 330 321 306 296 237 239 169 203 266 291 304 280 270 240 231 219 259 183 278 212 350 298 306 279 283 353 44 317 357 305 22 264 10 332 313 69 13 355 342 342 340 333
325 327 327 320 302 278 279 250 146 170 271 292 278 269 316 107 146 197 215 262 246 359 319 278 264 301 321 352 330 323 0 295 356 43 360 351 132 13 349 337 344 343 338 338
323 325 325 320 300 270 257 257 231 190 273 292 293 311 239 233 192 209 217 227 244 225 223 261 290 261 20 300 262 28 348 358 353 33 308 277 297 326 329 335 333 339 335 335
320 324 322 314 286 215 220 274 193 190 180 280 304 319 276 295 294 277 268 204 216 229 150 220 269 300 273 330 303 135 28 360 9 319 311 295 294 303 331 329 326 332 334 331
318 324 319 309 217 150 208 316 23 169 166 262 296 290 282 330 337 346 26 105 222 245 199 268 323 357 303 300 321 353 339 328 324 314 332 311 306 316 314 316 323 324 326 328
321 324 322 39 132 82 282 1 179 167 196 230 288 280 315 359 320 339 337 354 180 315 341 153 348 286 291 288 350 334 330 327 321 331 318 299 301 303 314 322 326 324 325 330
324 326 122 108 109 208 93 24 135 177 271 261 207 281 305 339 298 20 351 334 67 347 6 22 306 1 53 305 310 314 315 319 303 315 310 303 308 312 316 319 321 322 319 322
323 247 261 98 85 312 136 174 206 217 205 218 252 227 279 288 317 35 337 2 38 16 8 329 18 23 254 267 268 277 297 295 304 306 322 324 316 314 315 319 313 307 308 312
0 354 315 335 306 170 227 216 220 177 236 210 236 243 293 176 313 347 266 359 356 23 20 327 72 2 300 320 305 291 306 292 289 278 278 283 282 289 302 309 307 305 300 298
280 297 295 277 292 141 239 238 223 221 282 205 252 330 236 227 250 218 194 146 331 81 322 284 40 328 332 346 343 340 335 327 333 337 316 303 294 295 293 298 299 298 295 291
256 197 245 304 241 258 213 216 216 253 206 220 283 324 294 200 70 65 33 207 184 298 169 99 235 291 304 329 335 338 313 310 313 321 328 347 331 319 315 305 297 290 286 287
265 244 284 207 222 238 196 188 200 230 244 274 290 251 298 329 223 182 210 79 231 99 117 192 277 306 325 317 319 323 335 336 331 325 328 332 350 341 325 321 314 295 288 288
241 192 237 226 242 259 250 228 245 212 251 217 213 185 236 66 261 4 323 170 102 257 195 239 249 284 307 299 296 314 329 335 327 330 332 332 343 341 338 336 329 316 287 283
227 234 243 207 253 248 212 212 247 182 151 137 187 238 233 188 203 250 202 173 209 224 223 248 299 299 302 314 302 295 306 320 322 324 336 341 341 339 328 333 340 336 320 295
226 237 221 205 262 256 251 202 218 152 173 220 168 230 229 117 235 228 194 212 214 222 248 247 262 280 294 302 291 281 299 315 321 321 335 333 333 339 345 342 337 330 322 322